Tallevast, FL

7:04 PM EDT on August 28, 2016 (GMT -0400)
Sarasota-bradenton

Weather History for KSRQ - September, 2012

Change the Weather History Date:

Thursday, September 27, 2012

  Actual Average Record
Temperature  
Mean Temperature 82 °F 80 °F  
Max Temperature 92 °F 88 °F 94 °F (1925)
Min Temperature 72 °F 73 °F 59 °F (1991)
Degree Days  
Heating Degree Days 0 0  
Month to date heating degree days 0 0  
Since 1 July heating degree days 0 0  
Cooling Degree Days 17 15  
Month to date cooling degree days 463 448  
Year to date cooling degree days 3217 2745  
Growing Degree Days 32 (Base 50)    
Moisture  
Dew Point 71 °F    
Average Humidity 75    
Maximum Humidity 93    
Minimum Humidity 44    
Precipitation  
Precipitation 0.00 in 0.14 in 7.08 in (1997)
Month to date precipitation 1.94 6.67  
Year to date precipitation 40.37 45.00  
Sea Level Pressure  
Sea Level Pressure 30.06 in    
Wind  
Wind Speed 6 mph (NE)    
Max Wind Speed 12 mph    
Max Gust Speed 17 mph    
Visibility 10 miles    
Events      
T = Trace of Precipitation, MM = Missing Value Source: NWS Daily Summary

Daily Weather History Graph

Daily Weather History Graph

Search for Another Location

Airport or City:

Trip Planner

Search our weather history database for the weather conditions in past years. The results will help you decide how hot, cold, wet, or windy it might be!

Date:

Astronomy

Sep. 27, 2012 Rise Set
Actual Time 7:21 AM EDT 7:20 PM EDT
Civil Twilight 6:57 AM EDT 7:43 PM EDT
Nautical Twilight 6:30 AM EDT 8:10 PM EDT
Astronomical Twilight 6:03 AM EDT 8:37 PM EDT
Moon 5:44 PM EDT (9/27) 4:59 AM EDT (9/27)
Length of Visible Light 12h 45m
Length of Day
11h 59m
Waxing Gibbous, 94% of the Moon is Illuminated
Sep 27
Waxing Gibbous
Sep 29
Full
Oct 8
Last Quarter
Oct 15
New
Oct 21
First Quarter

Hourly Weather History & Observations

Time (EDT) Temp. Heat Index Dew Point Humidity Pressure Visibility Wind Dir Wind Speed Gust Speed Precip Events Conditions
12:53 AM 73.9 °F - 72.0 °F 93% 30.09 in 10.0 mi NE 4.6 mph - N/A   Clear
1:53 AM 73.9 °F - 71.1 °F 91% 30.07 in 10.0 mi NE 5.8 mph - N/A   Clear
2:53 AM 73.9 °F - 71.1 °F 91% 30.06 in 10.0 mi NE 3.5 mph - N/A   Clear
3:53 AM 73.0 °F - 71.1 °F 93% 30.06 in 10.0 mi Calm Calm - N/A   Clear
4:53 AM 73.0 °F - 71.1 °F 93% 30.05 in 9.0 mi East 3.5 mph - N/A   Clear
5:53 AM 73.0 °F - 70.0 °F 90% 30.06 in 7.0 mi NE 3.5 mph - N/A   Clear
6:53 AM 73.0 °F - 71.1 °F 93% 30.08 in 9.0 mi NE 5.8 mph - N/A   Clear
7:53 AM 73.9 °F - 72.0 °F 93% 30.09 in 8.0 mi NNE 5.8 mph - N/A   Clear
8:53 AM 77.0 °F - 73.9 °F 90% 30.09 in 10.0 mi NE 6.9 mph - N/A   Clear
9:53 AM 80.1 °F 84.5 °F 73.9 °F 81% 30.11 in 10.0 mi NE 4.6 mph - N/A   Clear
10:53 AM 82.9 °F 90.2 °F 75.0 °F 77% 30.11 in 10.0 mi ENE 4.6 mph - N/A   Partly Cloudy
11:53 AM 86.0 °F 92.2 °F 72.0 °F 63% 30.10 in 10.0 mi East 5.8 mph - N/A   Clear
12:53 PM 89.1 °F 94.1 °F 70.0 °F 53% 30.09 in 10.0 mi Variable 6.9 mph - N/A   Partly Cloudy
2:53 PM 91.0 °F 95.6 °F 69.1 °F 48% 30.03 in 10.0 mi Variable 5.8 mph - N/A   Scattered Clouds
3:53 PM 91.0 °F 94.3 °F 66.9 °F 45% 30.01 in 10.0 mi Variable 3.5 mph - N/A   Clear
4:53 PM 90.0 °F 95.4 °F 70.0 °F 52% 30.00 in 10.0 mi NNW 11.5 mph - N/A   Clear
5:53 PM 88.0 °F 93.8 °F 71.1 °F 57% 30.00 in 10.0 mi NNW 8.1 mph - N/A   Clear
6:53 PM 84.9 °F 90.1 °F 71.1 °F 63% 30.01 in 10.0 mi NNW 9.2 mph - N/A   Clear
7:53 PM 82.9 °F 87.5 °F 71.1 °F 67% 30.02 in 10.0 mi NNW 4.6 mph - N/A   Scattered Clouds
8:53 PM 81.0 °F 83.8 °F 68.0 °F 65% 30.04 in 10.0 mi North 8.1 mph - N/A   Scattered Clouds
9:53 PM 79.0 °F - 66.9 °F 66% 30.05 in 10.0 mi NNE 3.5 mph - N/A   Clear
10:53 PM 79.0 °F - 70.0 °F 74% 30.06 in 10.0 mi ENE 5.8 mph - N/A   Scattered Clouds
11:53 PM 78.1 °F - 71.1 °F 79% 30.04 in 10.0 mi East 3.5 mph - N/A   Scattered Clouds